Regional Weather Roundup
Issued by NWS

Home | Current Version | Previous Version | Graphics & Text | Print | Product List | Glossary On
Versions: 1 2 3 4 5 6 7 8 9 10 11 12 13 14 15 16 17 18 19 20 21 22 23 24 25 26 27 28 29 30 31 32 33 34 35 36 37 38 39 40 41 42 43 44 45 46 47 48 49 50
000
ASUS43 KDTX 301601
RWRMI
MICHIGAN HOURLY REGIONAL WEATHER ROUNDUP
NATIONAL WEATHER SERVICE DETROIT/PONTIAC MI
1200 PM EDT THU OCT 30 2014

NOTE: "FAIR" INDICATES FEW OR NO CLOUDS BELOW 12,000 FEET WITH NO
SIGNIFICANT WEATHER AND/OR OBSTRUCTION TO VISIBILITY.

MIZ047>049-052>055-059>063-066>070-074>076-081>083-301700-
SOUTHEAST LOWER MICHIGAN

CITY           SKY/WX    TMP DP  RH WIND       PRES   REMARKS
ADRIAN         CLOUDY    45  36  70 VRB3      30.15S
ALMA           CLOUDY    47  37  68 S8        30.11F
ANN ARBOR      CLOUDY    47  35  63 CALM      30.14S
BAD AXE        CLOUDY    43  37  77 NW5       30.12S
CARO           CLOUDY    44  36  73 SW3       30.12S
DETROIT CITY   SUNNY     50  33  52 CALM      30.14F
DETROIT        PTSUNNY   48  35  60 CALM      30.15S
FLINT          CLOUDY    45  36  70 S6        30.14F
GROSSE ILE     MOSUNNY   48  36  61 CALM      30.13F
HILLSDALE      CLOUDY    46  38  76 S5        30.13S
HOWELL         CLOUDY    43  36  78 S3        30.13F

CITY           SKY/WX    TMP DP  RH WIND       PRES   REMARKS
JACKSON        CLOUDY    45  36  70 S7        30.13F
LAMBERTVILLE   CLOUDY    46  34  61 CALM      30.16R
LANSING        CLOUDY    45  36  70 S8        30.13F
LAPEER         CLOUDY    43  33  68 W5        30.12F
MASON          CLOUDY    44  36  74 S6        30.13F
MONROE         MOSUNNY   48  36  61 W6        30.14S
MT. CLEMENS    PTSUNNY   49  34  57 N7        30.11S
PONTIAC        PTSUNNY   46  33  60 W7        30.12S
PORT HOPE        N/A     44  34  67 W7        30.10S
PORT HURON     MOSUNNY   46  34  61 NW6       30.13S
TRI CITIES     CLOUDY    44  38  79 S7        30.12F
TROY           PTSUNNY   48  31  51 N3        30.14F
SAGINAW HB     CLOUDY    45  36  70 SW6       30.11F
$$
MIZ043>046-050>051-056>058-064>065-071>073-077>080-301700-
SOUTHWEST LOWER MICHIGAN

CITY           SKY/WX    TMP DP  RH WIND       PRES   REMARKS
BATTLE CREEK   CLOUDY    47  37  68 SW8       30.13S
BENTON HARBOR  PTSUNNY   48  35  60 W13       30.13S
BIG RAPIDS     CLOUDY    47  41  81 W5        30.08S
COLDWATER      CLOUDY    47  39  72 SW6       30.13S
FREMONT        CLOUDY    47  38  72 SW5       30.09S
HOLLAND        CLOUDY    50  38  63 SW12      30.12S
GRAND RAPIDS   CLOUDY    49  38  65 SW7       30.11F
IONIA          CLOUDY    46  38  73 SW6       30.10F
KALAMAZOO      CLOUDY    47  38  71 SW8       30.13S
LUDINGTON      PTSUNNY   49  40  69 SW9       30.09S
MARSHALL       CLOUDY    45  36  70 MISG      30.12S
MOUNT PLEASANT CLOUDY    46  38  72 S6        30.09F
MUSKEGON       CLOUDY    51  36  56 SW13      30.11S
SOUTH HAVEN    CLOUDY    49  38  64 SW8       30.12S
$$
MIZ016>042-301700-
NORTHERN LOWER MICHIGAN

CITY           SKY/WX    TMP DP  RH WIND       PRES   REMARKS
ALPENA         CLOUDY    40  33  76 SW6       30.09S
BEAVER ISLAND  DRIZZLE   43  41  94 CALM      30.06S
BELLAIRE       CLOUDY    44  38  79 CALM      30.07S
CADILLAC       CLOUDY    43  37  80 SW6       30.06S
CHARLEVOIX     CLOUDY    41  38  90 SE6       30.09S
FRANKFORT      CLOUDY    47  38  72 W7        30.07S
GAYLORD        CLOUDY    39  35  86 S6        30.06S WCI  35
GRAYLING       CLOUDY    41  37  86 CALM      30.07S
HARBOR SPRINGS CLOUDY    41  38  87 CALM      30.07S
HOUGHTON LAKE  CLOUDY    42  37  82 SW6       30.08S
MANISTEE       CLOUDY    46  36  66 W8        30.08S
OSCODA         CLOUDY    41  35  77 SW7       30.10F
PELLSTON       CLOUDY    42  37  82 S3        30.07F
ROGERS CITY    CLOUDY    41  36  81 S5        30.09S
TRAVERSE CITY  CLOUDY    45  38  76 VRB5      30.06S
$$
MIZ007>008-015-301700-
EASTERN UPPER MICHIGAN

CITY           SKY/WX    TMP DP  RH WIND       PRES   REMARKS
KINROSS        CLOUDY    41  39  93 SW3       30.05S
MACKINAC ISLAN CLOUDY    42  37  81 SW5       30.05F
NEWBERRY       CLOUDY    40  36  86 SW8       30.03F WCI  34
S. S. MARIE    CLOUDY    42  35  76 W5        30.04S
MUNISING         N/A     44  36  73 S3        30.03F
$$
MIZ004>006-011>014-085-301700-
CENTRAL UPPER MICHIGAN

CITY           SKY/WX    TMP DP  RH WIND       PRES   REMARKS
MANISTIQUE     CLOUDY    43  37  77 W3        30.04S
ESCANABA       CLOUDY    45  30  57 SW5       30.03F
MENOMINEE      CLOUDY    45  32  61 W7        30.05S
SAWYER-GWINN   CLOUDY    39  34  81 W7        30.02S WCI  34
$$
MIZ001>003-009>011-084-301700-
WESTERN UPPER MICHIGAN

CITY           SKY/WX    TMP DP  RH WIND       PRES   REMARKS
IRON MOUNTAIN  CLOUDY    41  32  70 CALM      30.02F
HOUGHTON       LGT RAIN  40  37  89 W8        30.01S WCI  34
COPPER HARBOR    N/A     42  37  82 N5        30.01S
IRONWOOD       CLOUDY    37  34  87 W10       30.03S WCI  30
$$

ABBREVIATIONS USED IN REMARKS
   TC - TEMPERATURE IN CELSIUS
  WCI - WIND CHILL INDEX
   HX - HEAT INDEX
  VSB - VISIBILITY




USA.gov is the U.S. government's official web portal to all federal, state and local government web resources and services.